Regional Weather Roundup
Issued by NWS

Home | Current Version | Previous Version | Text Only | Print | Product List | Glossary On
Versions: 1 2 3 4 5 6 7 8 9 10 11 12 13 14 15 16 17 18 19 20 21 22 23 24 25 26 27 28 29 30 31 32 33 34 35 36 37 38 39 40 41 42 43 44 45 46 47 48 49 50
000
ASUS43 KLOT 210408
RWRIL

ILLINOIS REGIONAL WEATHER ROUNDUP
NATIONAL WEATHER SERVICE CHICAGO/ROMEOVILLE IL
1000 PM CST WED NOV 20 2019

NOTE: "FAIR" INDICATES FEW OR NO CLOUDS BELOW 12,000 FEET WITH NO
SIGNIFICANT WEATHER AND/OR OBSTRUCTIONS TO VISIBILITY.

* THESE STATIONS ARE NOT UNDER NWS QUALITY CONTROL. THEY ALSO MAY NOT
  REPORT WEATHER SUCH AS PRECIPITATION OR FOG.

ILZ001-002-007-009-015-016-024-210500-
NORTHWEST ILLINOIS

CITY           SKY/WX    TMP DP  RH WIND       PRES   REMARKS
MOLINE         MOCLDY    49  41  74 SE13G23   29.93F
STERLING*      MOCLDY    45  41  86 SE12      29.99F
SAVANNA*       LGT RAIN  45  41  87 SE14G22   29.96F
$$

ILZ003-004-008-010-011-017-018-210500-
NORTH CENTRAL ILLINOIS

CITY           SKY/WX    TMP DP  RH WIND       PRES   REMARKS
ROCKFORD       CLOUDY    44  39  82 S15       30.03F
FREEPORT*      FAIR      44  40  86 S16G23    30.00S
ROCHELLE*      FAIR      42  40  91 S13G20    30.02F
DE KALB*       FAIR      42  39  91 SE20G25   30.03F
PERU*          MOCLDY    42  38  87 SE14      30.04F
$$

ILZ005-006-012>014-019>023-210500-
NORTHEAST ILLINOIS

CITY           SKY/WX    TMP DP  RH WIND       PRES   REMARKS
CHICAGO-OHARE  CLOUDY    43  37  79 S12G21    30.08F
CHICAGO-MIDWAY CLOUDY    43  37  79 S13G23    30.10F
SCHAUMBURG     NOT AVBL
AURORA         FAIR      42  37  82 SE15      30.05F
LANSING*       FAIR      41  38  91 S13       30.12F
JOLIET*        FAIR      43  42  97 SE12G17   30.08F
WAUKEGAN       FAIR      43  36  76 S9        30.06F
DUPAGE AIRPORT FAIR      42  37  82 S14       30.06F
KANKAKEE*      FAIR      41  38  90 SE12      30.12F
WHEELING       FAIR      44  37  76 S15       30.08F
MORRIS*        FAIR      42  40  91 SE15G21   30.06F
ROMEOVILLE*    FAIR      41  38  91 S16       30.08F
NORTHERLY ISL    N/A     43  37  79 S8          N/A
$$

LMZ740>746-210500-
SOUTHERN LAKE MICHIGAN

STATION/POSITION SKY/WX   TEMP    WIND        PRES    VSBY  WAVE
                          AIR SEA DIR/SP/G                  HT/PER
                          (F)     (DEG/KT/KT) (MB)    (MI)  (FT/S)
SOUTHERN BUOY                 45  160/ 19/ 21   N/A           3/ 3
HARRISON CRIB              42     170/ 20/ 22   N/A
NORTHERLY ISL              42     160/  8/ 13   N/A
CALUMET HARBOR             43     160/  8/ 14 1018.9F
MICHIGAN CITY              43     160/ 13/ 18   N/A
$$

ILZ025>027-034>036-040-047-049-050-058-095>099-210500-
WEST-CENTRAL ILLINOIS

CITY           SKY/WX    TMP DP  RH WIND       PRES   REMARKS
QUINCY         MOCLDY    55  39  54 S16G28    29.93F
GALESBURG*     MOCLDY    48  41  76 E10G18    29.96F
MACOMB*        PTCLDY    48  41  76 S13       29.98F
JACKSONVILLE*  CLOUDY    53  40  61 SE20G26   30.00F
PITTSFIELD*    PTCLDY    55  42  62 SE16G22   29.98F
$$

ILZ028>032-037-038-041>044-048-051>054-059>061-210500-
CENTRAL ILLINOIS

CITY           SKY/WX    TMP DP  RH WIND       PRES   REMARKS
PONTIAC        FAIR      42  40  93 SE18      30.07F
BLOOMINGTON    FAIR      43  39  87 S21       30.06F
DECATUR        FAIR      45  38  76 SE16      30.08F
PEORIA         FAIR      48  39  71 S13G25    30.02F
LACON*         FAIR      46  40  77 S13G21    30.02F
LINCOLN*       CLOUDY    47  43  87 S15       30.05F
SPRINGFIELD    MOCLDY    49  40  71 S16G29    30.04F
TAYLORVILLE    FAIR      47  40  77 SE16G22   30.06F
$$

ILZ033-039-045-046-055>057-062-063-210500-
EAST-CENTRAL ILLINOIS

CITY           SKY/WX    TMP DP  RH WIND       PRES   REMARKS
CHAMPAIGN      FAIR      41  39  93 SE15      30.12F
DANVILLE*      FAIR      40  39  95 S8        30.13F FOG
RANTOUL*       FAIR      39  39  99 SE12      30.12F WCI  32
MATTOON        FAIR      43  38  82 S10       30.13S
PARIS*         FAIR      42  40  93 SE10      30.15F
$$

ILZ079-100>102-210500-
SOUTHWEST ILLINOIS

CITY           SKY/WX    TMP DP  RH WIND       PRES   REMARKS
ALTON          CLOUDY    50  41  71 SE14G21   30.06F
BELLEVILLE     PTCLDY    52  40  63 SE8       30.07S
CAHOKIA*       CLEAR     53  39  59 SE12      30.05F
$$

ILZ064>066-069>071-074>076-080>082-084>086-088>090-092>094-210500-
SOUTH-CENTRAL ILLINOIS

CITY           SKY/WX    TMP DP  RH WIND       PRES   REMARKS
CARBONDALE     FAIR      50  38  63 SE6       30.13F
CAIRO*         FAIR      54  37  53 SE6       30.15S
EFFINGHAM*     FAIR      45  34  66 E9        30.15F
MARION         FAIR      50  39  67 SE5       30.15F
MT. VERNON     FAIR      49  41  74 SE6       30.14F
CENTRALIA*     CLEAR     50  39  67 SE9       30.10F
SALEM*         FAIR      50  41  71 SE8       30.12F
METROPOLIS*    FAIR      53  38  56 SE3       30.16F
$$

ILZ067-068-072-073-078-083-087-091-210500-
SOUTHEAST ILLINOIS

CITY           SKY/WX    TMP DP  RH WIND       PRES   REMARKS
LAWRENCEVILLE  FAIR      40  37  89 SE7       30.18F
FLORA*         FAIR      45  41  87 SE9       30.15F
FAIRFIELD*     FAIR      47  40  74 SE3       30.16R
ROBINSON*      FAIR      40  39  94 SE6       30.18F
CARMI*         FAIR      45  41  87 SE6       30.17R
$$

ABBREVIATIONS USED IN REMARKS
   TC - TEMPERATURE IN CELSIUS
  WCI - WIND CHILL INDEX
   HX - HEAT INDEX
  VSB - VISIBILITY
$$




USA.gov is the U.S. government's official web portal to all federal, state and local government web resources and services.